STARLINK-34528, 64479

Orbit data source: Space-Track

STARLINK-34528, 64479 is a payload satellite owned by SpaceX/Seattle (US) in LEO that was launched on Mon, 23 Jun 2025 UTC via an FALCON 9 launch vehicle from the Air Force Eastern Test Range (AFETR). Payload-class satellites include a variety of spacecraft equipped with specific instruments for various scientific and technological missions. These include communications satellites like Starlink; space stations such as the ISS; scientific satellites like the Hubble; Earth observation satellites from companies like Planet Labs, Umbra, and HawkEye 360; GPS; miniature CubeSats for education and research; and military/defense satellites.

Loading next visibility...
Identifier
64479, 2025-133H
Orbit
LEO
Last TLE update
14 hours ago
Origin
Manufacturer
SpaceX/Seattle
Mission
Operational spacecraft
Bus & Motor
STARLINK V2MO, Unknown motor
Mass
575 kg wet, ~530 kg dry
Launch date (UTC)
2025-06-23 (1 week ago)
Launch vehicle
FALCON 9
Launch site
Air Force Eastern Test Range (AFETR)
Object type
Payload
Rocket body
Debris
Shape & HBR
Unknown
Radar Cross Section
RCS unknown

Expand to show TLE details & history

TLE from 14 hours ago
0 STARLINK-34528
1 64479U 25133H   25182.16668981 -.01099445  00000-0 -46253-2 0  9993
2 64479  53.1558 217.9764 0000958  87.2857  90.3955 15.87361112  2473
Epoch: 2025-07-01T04:00Z
TLE epoch observation values (Epoch: 2025-07-01T04:00:01.999Z)
Latitude
1.77589°
Longitude
57.17833°
Altitude
310.398 km
Speed
7.723 km/s
True Right ascension
02h 26m 36s
True Declination
1° 45' 52"
Sunlit
Object was in daylight at epoch
Visualization orbit readout
Latitude
-53.29807°
Longitude
143.80245°
Altitude
332.76 km
Speed
7.708 km/s
Apparent Right ascension
13h 59m 09s
Apparent Declination
-72° 02' 24"
Sunlit
Object is in daylight
Visualization observer readout
Local Sidereal Time
05:39:03
Azimuth
157.712° S
Elevation
-48.257°
Doppler factor
1
Orbital elements
Apogee altitude
310.589 km
Perigee altitude
309.307 km
Semi-major axis
6,688.085 km
Eccentricity
0.0001
Inclination
53.1558°
RAAN
217.9764°
Arg. of periapsis
87.2857°
True anomaly
Unknown
Mean anomaly
90.3955°
Eccentric anomaly
Unknown
Mean motion
3.96817 °/min
Orbital period
90.72 mins
BSTAR
-0.0046253
Loading maneuver chart data...
Loading SW <> Apogee altitude chart data...
Loading historical data...
Loading historical data...
Loading historical data...
Loading historical data...
Loading historical data...
Loading historical data...
Loading historical data...

STARLINK-34528 Visibility forecast

Observer location: undefined°, undefined°

Span
Click to sort rows by Start time (UTC) header in descending order
Start Az.
Max El. time (UTC)
Max El. Az.
Max El.
End time (UTC)
End Az.
4 mins2025-07-02 05:09:21.764Z236.753° WSW2025-07-02 05:11:21.764Z301.795° NW43.379°2025-07-02 05:13:21.764Z44.294° NE
4 mins2025-07-02 11:30:21.764Z320.475° NNW2025-07-02 11:32:21.764Z32.16° NE39.605°2025-07-02 11:34:21.764Z114.544° SE
|